User: anonymous   Login
Location: St. Malo Provincial Park
(49.3214°N, 96.9305°W)
Time: 06:22:09
(UTC-05:00)
Language:

Iridium 6 - Orbit

View from above orbital plane
View from above orbital plane
View from above satellite
View from above satellite

Ground track
Ground track

The orbit data is extracted from the following two-line orbital elements,

1 24794U 97020C   14303.23236013  .00000516  00000-0  17704-3 0  8426
2 24794 086.3989 000.5583 0002133 110.9839 249.1585 14.34220489915468
Epoch (UTC): 30 October 2014 05:34:35
Eccentricity: 0.0002133
inclination: 86.3989°
perigee height: 776 km
apogee height: 779 km
right ascension of ascending node: 0.5583°
argument of perigee: 110.9839°
revolutions per day: 14.34220489
mean anomaly at epoch: 249.1585°
orbit number at epoch: 91546

The dashed part of the orbit path shows where the satellite is in the earth's shadow,  

DLR